This is the latest recevied weather packets stored in our database for station/object DELTON-WX. If no packets are shown the sender has not sent any weather packets the latest 10 day(s).
| Time | Temp. | Humidity | Pressure | Rain* | Wind** | Luminosity | Snow |
|---|---|---|---|---|---|---|---|
| 1777967148 | 11.67° C | 82% | 967.7 hPa | 0 mm | - | - | - |
| 1777966268 | 11.67° C | 82% | 967.7 hPa | 0 mm | - | - | - |
| 1777965348 | 12.22° C | 82% | 967.7 hPa | 0 mm | - | - | - |
| 1777964481 | 12.78° C | 82% | 967.7 hPa | 0 mm | - | - | - |
| 1777963547 | 12.78° C | 82% | 968.2 hPa | 0 mm | - | - | - |
| 1777962664 | 13.33° C | 82% | 967.6 hPa | 0 mm | - | - | - |
| 1777961749 | 13.33° C | 82% | 967.6 hPa | 0 mm | - | - | - |
| 1777960893 | 13.89° C | 82% | 967.6 hPa | 0 mm | - | - | - |
| 1777959948 | 13.89° C | 78% | 968.4 hPa | 0 mm | - | - | - |
| 1777959071 | 13.89° C | 71% | 967.6 hPa | 0 mm | - | - | - |
| 1777958147 | 13.89° C | 71% | 967.6 hPa | 0 mm | - | - | - |
| 1777957280 | 15° C | 71% | 967.6 hPa | 0 mm | - | - | - |
| 1777956347 | 15° C | 67% | 966.9 hPa | 0 mm | - | - | - |
| 1777955470 | 15° C | 77% | 966.9 hPa | 0 mm | - | - | - |
| 1777954547 | 15° C | 77% | 967.5 hPa | 0 mm | - | - | - |
| 1777953685 | 15° C | 77% | 967.5 hPa | 0 mm | - | - | - |
| 1777952744 | 15° C | 73% | 967.1 hPa | 0 mm | - | - | - |
| 1777951868 | 15.56° C | 66% | 967.1 hPa | 0 mm | - | - | - |
| 1777950947 | 15.56° C | 66% | 967.1 hPa | 0 mm | - | - | - |
| 1777950081 | 15.56° C | 66% | 967.1 hPa | 0 mm | - | - | - |
| 1777949148 | 15.56° C | 69% | 967.9 hPa | 0 mm | - | - | - |
| 1777948267 | 16.11° C | 51% | 967.8 hPa | 0 mm | - | - | - |
| 1777947346 | 17.22° C | 51% | 967.8 hPa | 0 mm | - | - | - |
| 1777946481 | 17.78° C | 51% | 967.8 hPa | 0 mm | - | - | - |
| 1777945547 | 17.22° C | 69% | 966.9 hPa | 0 mm | - | - | - |
* Rain latest hour (hover to see other rain measurements)
** Current wind speed in m/s (hover to see current wind gust speed)